カタログに戻る

STARLINK-36654

運用中通信VLEO
NORAD 67838·PAYLOAD·🇺🇸 United States

打ち上げ Feb 16, 2026 から Vandenberg Space Force Base

Loading…

次のパス (今後24時間)

TLE

最新Source: CelesTrak SupGP

元期: Sep 15, 2026, 03:49 UTC

1 67838C 26033T   26258.15951389 -.00018532  00000+0 -67102-3 0  2587
2 67838  43.0027 277.1634 0001704 273.4358 296.7219 15.27597747    15

AllMySatでSTARLINK-36654をリアルタイム追跡

Download on the App Store